| time (UTC) | temp F | wind direction | speed knots | gust knots | rain 1hr in | rain 24hr in | rain mn in | humidity % | barometer mb |
| 20260506110455 | 75 | 81 | 0.0 | 0.0 | 0.00 | 0.00 | 0.00 | 99 | 1009.6 |
| 20260506105951 | 75 | 71 | 0.0 | 0.0 | 0.00 | 0.00 | 0.00 | 99 | 1009.6 |
| 20260506105448 | 76 | 154 | 1.7 | 2.6 | 0.00 | 0.00 | 0.00 | 99 | 1009.6 |
| 20260506104945 | 76 | 84 | 0.0 | 0.9 | 0.00 | 0.00 | 0.00 | 99 | 1009.5 |
| 20260506104443 | 76 | 110 | 0.0 | 2.6 | 0.00 | 0.00 | 0.00 | 99 | 1009.4 |
| 20260506103941 | 76 | 79 | 0.0 | 0.9 | 0.00 | 0.00 | 0.00 | 99 | 1009.4 |
| 20260506103438 | 76 | 71 | 0.9 | 0.9 | 0.00 | 0.00 | 0.00 | 99 | 1009.5 |
| 20260506102935 | 76 | 102 | 0.9 | 2.6 | 0.00 | 0.00 | 0.00 | 99 | 1009.4 |
| 20260506102433 | 76 | 93 | 0.0 | 2.6 | 0.00 | 0.00 | 0.00 | 99 | 1009.5 |
| 20260506101930 | 76 | 70 | 0.0 | 1.7 | 0.00 | 0.00 | 0.00 | 99 | 1009.4 |
| 20260506101426 | 76 | 189 | 0.9 | 0.9 | 0.00 | 0.00 | 0.00 | 99 | 1009.4 |
| 20260506100924 | 76 | 133 | 1.7 | 1.7 | 0.00 | 0.00 | 0.00 | 99 | 1009.4 |
| 20260506100422 | 76 | 72 | 2.6 | 2.6 | 0.00 | 0.00 | 0.00 | 99 | 1009.3 |
| 20260506095920 | 76 | 89 | 0.0 | 1.7 | 0.00 | 0.00 | 0.00 | 99 | 1009.3 |
| 20260506095418 | 76 | 49 | 0.0 | 2.6 | 0.00 | 0.00 | 0.00 | 99 | 1009.3 |
| 20260506094914 | 76 | 75 | 0.9 | 1.7 | 0.00 | 0.00 | 0.00 | 99 | 1009.4 |
| 20260506094413 | 76 | 78 | 1.7 | 2.6 | 0.00 | 0.00 | 0.00 | 99 | 1009.4 |
| 20260506093910 | 76 | 67 | 4.3 | 6.1 | 0.00 | 0.00 | 0.00 | 99 | 1009.3 |
| 20260506093407 | 76 | 73 | 0.0 | 1.7 | 0.00 | 0.00 | 0.00 | 99 | 1009.5 |
| 20260506092905 | 76 | 61 | 0.9 | 1.7 | 0.00 | 0.00 | 0.00 | 99 | 1009.4 |
| 20260506092403 | 76 | 82 | 0.0 | 0.9 | 0.00 | 0.00 | 0.00 | 99 | 1009.4 |
| 20260506091859 | 76 | 83 | 0.0 | 0.9 | 0.00 | 0.00 | 0.00 | 99 | 1009.4 |
| 20260506091357 | 76 | 86 | 0.0 | 0.0 | 0.00 | 0.00 | 0.00 | 99 | 1009.4 |
| 20260506090854 | 76 | 85 | 0.0 | 1.7 | 0.00 | 0.00 | 0.00 | 99 | 1009.4 |
| 20260506090352 | 76 | 84 | 0.0 | 0.9 | 0.00 | 0.00 | 0.00 | 99 | 1009.5 |
| 20260506085848 | 75 | 71 | 0.0 | 0.0 | 0.00 | 0.00 | 0.00 | 99 | 1009.7 |
| 20260506085345 | 76 | 65 | 0.0 | 0.9 | 0.00 | 0.00 | 0.00 | 99 | 1009.6 |
| 20260506084841 | 76 | 71 | 0.0 | 0.9 | 0.00 | 0.00 | 0.00 | 99 | 1009.4 |
| 20260506084338 | 76 | 104 | 0.9 | 1.7 | 0.00 | 0.00 | 0.00 | 99 | 1009.8 |
| 20260506083835 | 76 | 68 | 0.0 | 0.9 | 0.00 | 0.00 | 0.00 | 99 | 1009.7 |
| 20260506083332 | 76 | 117 | 0.0 | 1.7 | 0.00 | 0.00 | 0.00 | 99 | 1009.7 |
| 20260506082830 | 76 | 91 | 0.9 | 1.7 | 0.00 | 0.00 | 0.00 | 99 | 1009.7 |
| 20260506082326 | 76 | 95 | 0.0 | 0.9 | 0.00 | 0.00 | 0.00 | 99 | 1009.7 |
| 20260506081822 | 76 | 150 | 0.0 | 0.9 | 0.00 | 0.00 | 0.00 | 99 | 1009.7 |
| 20260506081320 | 76 | 104 | 0.9 | 1.7 | 0.00 | 0.00 | 0.00 | 99 | 1009.9 |
| 20260506080818 | 76 | 116 | 0.0 | 2.6 | 0.00 | 0.00 | 0.00 | 99 | 1009.7 |
| 20260506080314 | 76 | 78 | 0.0 | 1.7 | 0.00 | 0.00 | 0.00 | 99 | 1010.0 |
| 20260506073258 | 76 | 352 | 1.7 | 1.7 | 0.00 | 0.00 | 0.00 | 99 | 1010.1 |
| 20260506072755 | 76 | 65 | 0.0 | 0.9 | 0.00 | 0.00 | 0.00 | 99 | 1010.2 |
| 20260506072252 | 76 | 87 | 0.9 | 2.6 | 0.00 | 0.00 | 0.00 | 99 | 1010.3 |
| 20260506071750 | 76 | 115 | 0.9 | 2.6 | 0.00 | 0.00 | 0.00 | 99 | 1010.1 |
| 20260506071248 | 76 | 84 | 0.0 | 0.0 | 0.00 | 0.00 | 0.00 | 99 | 1010.2 |
| 20260506070744 | 76 | 173 | 2.6 | 4.3 | 0.00 | 0.00 | 0.00 | 99 | 1010.1 |
| 20260506070241 | 76 | 57 | 0.9 | 5.2 | 0.00 | 0.00 | 0.00 | 99 | 1010.2 |
| 20260506062218 | 76 | 94 | 0.0 | 1.7 | 0.00 | 0.00 | 0.00 | 99 | 1010.2 |
| 20260506061714 | 76 | 355 | 0.9 | 2.6 | 0.00 | 0.00 | 0.00 | 99 | 1010.2 |
| 20260506061212 | 76 | 81 | 1.7 | 2.6 | 0.00 | 0.00 | 0.00 | 99 | 1010.0 |
| 20260506060711 | 76 | 72 | 3.5 | 5.2 | 0.00 | 0.00 | 0.00 | 99 | 1010.0 |
| 20260506060207 | 76 | 221 | 1.7 | 5.2 | 0.00 | 0.00 | 0.00 | 99 | 1010.0 |
| 20260506051139 | 76 | 346 | 0.0 | 4.3 | 0.00 | 0.00 | 0.00 | 99 | 1010.2 |
| 20260506050638 | 76 | 185 | 1.7 | 2.6 | 0.00 | 0.00 | 0.00 | 99 | 1010.2 |
| 20260506050134 | 76 | 204 | 0.9 | 2.6 | 0.00 | 0.00 | 0.00 | 99 | 1010.2 |
| 20260506045127 | 76 | 162 | 1.7 | 4.3 | 0.00 | 0.00 | 0.00 | 98 | 1010.3 |
| 20260506044625 | 76 | 205 | 1.7 | 2.6 | 0.00 | 0.00 | 0.00 | 98 | 1010.3 |
| 20260506044122 | 76 | 185 | 0.9 | 5.2 | 0.00 | 0.00 | 0.00 | 98 | 1010.5 |
| 20260506043619 | 76 | 92 | 0.9 | 4.3 | 0.00 | 0.00 | 0.00 | 98 | 1010.4 |
| 20260506043117 | 76 | 113 | 0.9 | 2.6 | 0.00 | 0.00 | 0.00 | 98 | 1010.2 |
| 20260506042616 | 76 | 110 | 1.7 | 4.3 | 0.00 | 0.00 | 0.00 | 98 | 1010.3 |
| 20260506042114 | 76 | 93 | 0.0 | 0.9 | 0.00 | 0.00 | 0.00 | 98 | 1010.5 |
| 20260506041612 | 76 | 144 | 1.7 | 2.6 | 0.00 | 0.00 | 0.00 | 98 | 1010.4 |
| 20260506041108 | 76 | 188 | 1.7 | 1.7 | 0.00 | 0.00 | 0.00 | 98 | 1010.4 |
| 20260506040606 | 76 | 168 | 3.5 | 6.1 | 0.00 | 0.00 | 0.00 | 98 | 1010.2 |
| 20260506035559 | 76 | 63 | 0.9 | 4.3 | 0.00 | 0.00 | 0.00 | 98 | 1010.3 |
| 20260506035056 | 76 | 213 | 1.7 | 2.6 | 0.00 | 0.00 | 0.00 | 98 | 1010.2 |
| 20260506034553 | 76 | 59 | 0.0 | 5.2 | 0.00 | 0.00 | 0.00 | 98 | 1010.1 |
| 20260506034050 | 76 | 89 | 3.5 | 5.2 | 0.00 | 0.00 | 0.00 | 98 | 1010.1 |
| 20260506033548 | 76 | 168 | 0.9 | 2.6 | 0.00 | 0.00 | 0.00 | 99 | 1010.2 |
| 20260506033044 | 76 | 39 | 1.7 | 4.3 | 0.00 | 0.00 | 0.00 | 99 | 1010.1 |
| 20260506032542 | 76 | 137 | 0.9 | 1.7 | 0.00 | 0.00 | 0.00 | 99 | 1009.9 |
| 20260506032038 | 76 | 232 | 1.7 | 4.3 | 0.00 | 0.00 | 0.00 | 99 | 1010.0 |
| 20260506031536 | 76 | 218 | 1.7 | 5.2 | 0.00 | 0.00 | 0.00 | 99 | 1009.9 |
| 20260506031033 | 76 | 197 | 1.7 | 2.6 | 0.00 | 0.00 | 0.00 | 99 | 1009.9 |
| 20260506030531 | 76 | 173 | 2.6 | 2.6 | 0.00 | 0.00 | 0.00 | 99 | 1009.9 |
| 20260506030028 | 76 | 103 | 1.7 | 4.3 | 0.00 | 0.00 | 0.00 | 99 | 1010.1 |
| 20260506025525 | 76 | 326 | 0.9 | 4.3 | 0.00 | 0.00 | 0.00 | 99 | 1009.8 |
| 20260506025021 | 76 | 93 | 0.0 | 5.2 | 0.00 | 0.00 | 0.00 | 99 | 1009.6 |
| 20260506024518 | 76 | 42 | 0.0 | 4.3 | 0.00 | 0.00 | 0.00 | 99 | 1009.5 |
| 20260506024014 | 76 | 55 | 0.9 | 4.3 | 0.00 | 0.00 | 0.00 | 98 | 1009.5 |
| 20260506023510 | 76 | 133 | 0.9 | 4.3 | 0.00 | 0.00 | 0.00 | 98 | 1009.3 |
| 20260506023008 | 76 | 197 | 4.3 | 5.2 | 0.00 | 0.00 | 0.00 | 98 | 1009.1 |
| 20260506022506 | 76 | 84 | 2.6 | 5.2 | 0.00 | 0.00 | 0.00 | 98 | 1009.2 |
| 20260506022003 | 76 | 127 | 3.5 | 5.2 | 0.00 | 0.00 | 0.00 | 98 | 1009.0 |
| 20260506021500 | 76 | 86 | 0.0 | 1.7 | 0.00 | 0.00 | 0.00 | 97 | 1009.0 |
| 20260506020957 | 76 | 234 | 2.6 | 7.0 | 0.00 | 0.00 | 0.00 | 97 | 1009.1 |
| 20260506020455 | 77 | 103 | 0.9 | 6.1 | 0.00 | 0.00 | 0.00 | 97 | 1009.0 |
| 20260506015951 | 77 | 98 | 0.0 | 2.6 | 0.00 | 0.00 | 0.00 | 97 | 1008.9 |
| 20260506015449 | 77 | 76 | 2.6 | 7.8 | 0.00 | 0.00 | 0.00 | 97 | 1008.9 |
| 20260506014946 | 77 | 350 | 0.9 | 2.6 | 0.00 | 0.00 | 0.00 | 97 | 1008.8 |
| 20260506014443 | 77 | 216 | 2.6 | 2.6 | 0.00 | 0.00 | 0.00 | 97 | 1008.7 |
| 20260506013939 | 77 | 189 | 2.6 | 4.3 | 0.00 | 0.00 | 0.00 | 97 | 1008.6 |
| 20260506013438 | 77 | 129 | 1.7 | 4.3 | 0.00 | 0.00 | 0.00 | 97 | 1008.6 |
| 20260506012933 | 77 | 108 | 0.9 | 6.1 | 0.00 | 0.00 | 0.00 | 96 | 1008.6 |
| 20260506012430 | 77 | 171 | 2.6 | 4.3 | 0.00 | 0.00 | 0.00 | 96 | 1008.6 |
| 20260506011927 | 77 | 61 | 0.9 | 4.3 | 0.00 | 0.00 | 0.00 | 96 | 1008.7 |
| 20260506011425 | 77 | 99 | 1.7 | 7.0 | 0.00 | 0.00 | 0.00 | 96 | 1008.7 |
| 20260506010921 | 77 | 239 | 1.7 | 6.1 | 0.00 | 0.00 | 0.00 | 96 | 1008.6 |
| 20260506010420 | 77 | 98 | 2.6 | 2.6 | 0.00 | 0.00 | 0.00 | 96 | 1008.7 |
| 20260506005916 | 77 | 164 | 0.9 | 2.6 | 0.00 | 0.00 | 0.00 | 96 | 1008.6 |
| 20260506005414 | 77 | 179 | 2.6 | 6.1 | 0.00 | 0.00 | 0.00 | 95 | 1008.5 |
| 20260506004909 | 77 | 269 | 1.7 | 4.3 | 0.00 | 0.00 | 0.00 | 95 | 1008.3 |
| 20260506004407 | 77 | 181 | 3.5 | 7.0 | 0.00 | 0.00 | 0.00 | 95 | 1008.5 |
| 20260506003903 | 77 | 156 | 1.7 | 2.6 | 0.00 | 0.00 | 0.00 | 95 | 1008.4 |
| 20260506003359 | 78 | 83 | 0.9 | 5.2 | 0.00 | 0.00 | 0.00 | 95 | 1008.5 |
| 20260506002856 | 78 | 174 | 4.3 | 6.1 | 0.00 | 0.00 | 0.00 | 94 | 1008.3 |
| 20260506002352 | 78 | 40 | 1.7 | 2.6 | 0.00 | 0.00 | 0.00 | 94 | 1008.4 |
| 20260506001848 | 78 | 69 | 1.7 | 5.2 | 0.00 | 0.00 | 0.00 | 94 | 1008.2 |
| 20260506001345 | 78 | 121 | 2.6 | 4.3 | 0.00 | 0.00 | 0.00 | 94 | 1008.2 |
| 20260506000842 | 78 | 170 | 2.6 | 4.3 | 0.00 | 0.00 | 0.00 | 94 | 1008.2 |
| 20260506000340 | 78 | 175 | 0.9 | 5.2 | 0.00 | 0.00 | 0.00 | 94 | 1008.1 |
| 20260505235836 | 78 | 122 | 1.7 | 4.3 | 0.00 | 0.00 | 0.00 | 94 | 1008.4 |
| 20260505235334 | 78 | 112 | 1.7 | 5.2 | 0.00 | 0.00 | 0.00 | 94 | 1008.6 |
| 20260505234830 | 78 | 15 | 0.9 | 5.2 | 0.00 | 0.00 | 0.00 | 93 | 1008.6 |
| 20260505234329 | 78 | 73 | 0.9 | 5.2 | 0.00 | 0.00 | 0.00 | 93 | 1008.3 |
| 20260505233825 | 78 | 182 | 2.6 | 4.3 | 0.00 | 0.00 | 0.00 | 92 | 1008.2 |
| 20260505233323 | 78 | 114 | 4.3 | 7.0 | 0.00 | 0.00 | 0.00 | 92 | 1008.2 |
| 20260505232820 | 78 | 142 | 2.6 | 6.1 | 0.00 | 0.00 | 0.00 | 92 | 1008.2 |
| 20260505232318 | 78 | 96 | 0.9 | 5.2 | 0.00 | 0.00 | 0.00 | 92 | 1008.0 |
| 20260505231814 | 79 | 208 | 1.7 | 2.6 | 0.00 | 0.00 | 0.00 | 92 | 1008.4 |
| 20260505231312 | 79 | 132 | 1.7 | 11.3 | 0.00 | 0.00 | 0.00 | 92 | 1008.1 |
| 20260505230810 | 79 | 265 | 4.3 | 9.6 | 0.00 | 0.00 | 0.00 | 92 | 1008.3 |
| 20260505230307 | 79 | 336 | 0.9 | 2.6 | 0.00 | 0.00 | 0.00 | 91 | 1008.4 |
| 20260505225803 | 79 | 185 | 1.7 | 6.1 | 0.00 | 0.00 | 0.00 | 91 | 1008.3 |
| 20260505225301 | 79 | 175 | 2.6 | 4.3 | 0.00 | 0.00 | 0.00 | 90 | 1008.3 |
| 20260505224755 | 80 | 166 | 3.5 | 8.7 | 0.00 | 0.00 | 0.00 | 90 | 1008.3 |
| 20260505224254 | 80 | 95 | 2.6 | 8.7 | 0.00 | 0.00 | 0.00 | 90 | 1008.3 |
| 20260505223751 | 80 | 167 | 4.3 | 6.1 | 0.00 | 0.00 | 0.00 | 89 | 1008.2 |
| 20260505223247 | 80 | 175 | 0.9 | 7.8 | 0.00 | 0.00 | 0.00 | 90 | 1008.3 |
| 20260505222743 | 79 | 164 | 3.5 | 8.7 | 0.00 | 0.00 | 0.00 | 90 | 1008.3 |
| 20260505222240 | 79 | 86 | 4.3 | 7.0 | 0.00 | 0.00 | 0.00 | 89 | 1008.4 |
| 20260505221737 | 79 | 170 | 1.7 | 7.0 | 0.00 | 0.00 | 0.00 | 90 | 1008.6 |
| 20260505221233 | 80 | 81 | 3.5 | 5.2 | 0.00 | 0.00 | 0.00 | 89 | 1008.5 |
| 20260505220730 | 80 | 209 | 6.1 | 8.7 | 0.00 | 0.00 | 0.00 | 89 | 1008.5 |
| 20260505220228 | 80 | 240 | 2.6 | 6.1 | 0.00 | 0.00 | 0.00 | 89 | 1008.4 |
| 20260505215726 | 80 | 100 | 1.7 | 7.8 | 0.00 | 0.00 | 0.00 | 89 | 1008.5 |
| 20260505215223 | 80 | 201 | 1.7 | 4.3 | 0.00 | 0.00 | 0.00 | 89 | 1008.5 |
| 20260505214721 | 80 | 158 | 4.3 | 6.1 | 0.00 | 0.00 | 0.00 | 88 | 1008.5 |
| 20260505214218 | 80 | 205 | 1.7 | 2.6 | 0.00 | 0.00 | 0.00 | 88 | 1008.6 |
| 20260505213715 | 80 | 133 | 1.7 | 4.3 | 0.00 | 0.00 | 0.00 | 88 | 1008.6 |
| 20260505213212 | 81 | 216 | 2.6 | 5.2 | 0.00 | 0.00 | 0.00 | 88 | 1008.6 |
| 20260505212708 | 81 | 123 | 2.6 | 4.3 | 0.00 | 0.00 | 0.00 | 88 | 1008.4 |
| 20260505212206 | 81 | 301 | 2.6 | 5.2 | 0.00 | 0.00 | 0.00 | 87 | 1008.7 |
| 20260505211702 | 82 | 292 | 0.9 | 6.1 | 0.00 | 0.00 | 0.00 | 87 | 1008.8 |
| 20260505211200 | 82 | 134 | 0.9 | 4.3 | 0.00 | 0.00 | 0.00 | 86 | 1008.8 |
| 20260505210656 | 82 | 326 | 1.7 | 7.8 | 0.00 | 0.00 | 0.00 | 87 | 1008.6 |
| 20260505210153 | 81 | 194 | 2.6 | 5.2 | 0.00 | 0.00 | 0.00 | 87 | 1008.9 |
| 20260505205651 | 81 | 189 | 5.2 | 7.0 | 0.00 | 0.00 | 0.00 | 87 | 1008.7 |
| 20260505205149 | 81 | 48 | 0.9 | 2.6 | 0.00 | 0.00 | 0.00 | 87 | 1009.0 |
| 20260505204645 | 80 | 176 | 1.7 | 5.2 | 0.00 | 0.00 | 0.00 | 88 | 1008.9 |
| 20260505204143 | 80 | 84 | 1.7 | 6.1 | 0.00 | 0.00 | 0.00 | 88 | 1009.1 |
| 20260505203640 | 80 | 178 | 3.5 | 7.0 | 0.00 | 0.00 | 0.00 | 88 | 1009.1 |
| 20260505203137 | 81 | 41 | 0.9 | 8.7 | 0.00 | 0.00 | 0.00 | 87 | 1009.3 |
| 20260505202632 | 81 | 168 | 1.7 | 4.3 | 0.00 | 0.00 | 0.00 | 88 | 1009.4 |
| 20260505202128 | 81 | 63 | 2.6 | 7.8 | 0.00 | 0.00 | 0.00 | 87 | 1009.4 |
| 20260505201625 | 82 | 203 | 4.3 | 7.0 | 0.00 | 0.00 | 0.00 | 86 | 1009.2 |
| 20260505201123 | 81 | 346 | 0.9 | 5.2 | 0.00 | 0.00 | 0.00 | 87 | 1009.2 |
| 20260505200621 | 80 | 144 | 1.7 | 8.7 | 0.00 | 0.00 | 0.00 | 88 | 1009.5 |
| 20260505200118 | 81 | 196 | 4.3 | 7.8 | 0.00 | 0.00 | 0.00 | 88 | 1009.3 |
| 20260505195614 | 80 | 192 | 5.2 | 7.0 | 0.00 | 0.00 | 0.00 | 89 | 1009.4 |
| 20260505195111 | 80 | 222 | 2.6 | 7.0 | 0.00 | 0.00 | 0.00 | 90 | 1009.5 |
| 20260505194608 | 79 | 227 | 1.7 | 5.2 | 0.00 | 0.00 | 0.00 | 91 | 1009.6 |
| 20260505194104 | 79 | 220 | 0.9 | 6.1 | 0.00 | 0.00 | 0.00 | 91 | 1009.8 |
| 20260505193601 | 80 | 207 | 1.7 | 7.0 | 0.00 | 0.00 | 0.00 | 90 | 1009.8 |
| 20260505193058 | 80 | 235 | 3.5 | 6.1 | 0.00 | 0.00 | 0.00 | 90 | 1009.7 |
| 20260505192557 | 79 | 305 | 0.9 | 1.7 | 0.00 | 0.00 | 0.00 | 91 | 1009.7 |
| 20260505192054 | 78 | 204 | 1.7 | 9.6 | 0.00 | 0.00 | 0.00 | 92 | 1009.8 |
| 20260505191552 | 78 | 154 | 3.5 | 6.1 | 0.00 | 0.00 | 0.00 | 93 | 1009.9 |
| 20260505191050 | 77 | 188 | 2.6 | 4.3 | 0.00 | 0.00 | 0.00 | 94 | 1010.0 |
| 20260505190544 | 77 | 208 | 3.5 | 5.2 | 0.00 | 0.00 | 0.00 | 94 | 1010.1 |
| 20260505190040 | 77 | 256 | 1.7 | 1.7 | 0.00 | 0.00 | 0.00 | 95 | 1010.1 |
| 20260505185537 | 77 | 94 | 0.9 | 2.6 | 0.00 | 0.00 | 0.00 | 94 | 1010.2 |
| 20260505185034 | 77 | 164 | 2.6 | 5.2 | 0.00 | 0.00 | 0.00 | 93 | 1010.3 |
| 20260505184531 | 78 | 267 | 2.6 | 5.2 | 0.00 | 0.00 | 0.00 | 92 | 1010.4 |
| 20260505184027 | 79 | 194 | 2.6 | 7.0 | 0.00 | 0.00 | 0.00 | 90 | 1010.3 |
| 20260505183524 | 79 | 102 | 0.9 | 2.6 | 0.00 | 0.00 | 0.00 | 89 | 1010.2 |
| 20260505183022 | 79 | 182 | 0.9 | 5.2 | 0.00 | 0.00 | 0.00 | 89 | 1010.2 |
| 20260505182518 | 79 | 351 | 0.9 | 4.3 | 0.00 | 0.00 | 0.00 | 89 | 1010.2 |
| 20260505182015 | 79 | 7 | 0.0 | 5.2 | 0.00 | 0.00 | 0.00 | 89 | 1010.4 |
| 20260505181511 | 79 | 170 | 5.2 | 8.7 | 0.00 | 0.00 | 0.00 | 88 | 1010.1 |
| 20260505181009 | 79 | 203 | 7.8 | 11.3 | 0.00 | 0.00 | 0.00 | 87 | 1010.1 |
| 20260505180504 | 79 | 89 | 2.6 | 5.2 | 0.00 | 0.00 | 0.00 | 88 | 1010.2 |
| 20260505180003 | 79 | 146 | 2.6 | 7.0 | 0.00 | 0.00 | 0.00 | 87 | 1010.1 |
| 20260505175457 | 80 | 197 | 3.5 | 6.1 | 0.00 | 0.00 | 0.00 | 87 | 1010.2 |
| 20260505174954 | 79 | 116 | 0.9 | 2.6 | 0.00 | 0.00 | 0.00 | 87 | 1010.2 |
| 20260505174451 | 79 | 272 | 3.5 | 5.2 | 0.00 | 0.00 | 0.00 | 88 | 1010.3 |
| 20260505173947 | 79 | 246 | 3.5 | 6.1 | 0.00 | 0.00 | 0.00 | 88 | 1010.4 |
| 20260505173444 | 79 | 24 | 4.3 | 7.0 | 0.00 | 0.00 | 0.00 | 88 | 1010.3 |
| 20260505172941 | 79 | 74 | 1.7 | 5.2 | 0.00 | 0.00 | 0.00 | 89 | 1010.3 |
| 20260505172439 | 79 | 188 | 3.5 | 5.2 | 0.00 | 0.00 | 0.00 | 88 | 1010.3 |
| 20260505171938 | 79 | 332 | 4.3 | 6.1 | 0.00 | 0.00 | 0.00 | 89 | 1010.5 |
| 20260505171436 | 79 | 83 | 4.3 | 6.1 | 0.00 | 0.00 | 0.00 | 88 | 1010.5 |
| 20260505170932 | 79 | 36 | 0.9 | 2.6 | 0.00 | 0.00 | 0.00 | 89 | 1010.4 |
| 20260505170429 | 79 | 145 | 1.7 | 2.6 | 0.00 | 0.00 | 0.00 | 88 | 1010.6 |
| 20260505165924 | 79 | 256 | 5.2 | 7.8 | 0.00 | 0.00 | 0.00 | 88 | 1010.5 |
| 20260505165421 | 78 | 87 | 1.7 | 7.0 | 0.00 | 0.00 | 0.00 | 89 | 1010.6 |
| 20260505164916 | 78 | 354 | 1.7 | 4.3 | 0.00 | 0.00 | 0.00 | 89 | 1010.4 |
| 20260505164413 | 78 | 72 | 0.9 | 4.3 | 0.00 | 0.00 | 0.00 | 89 | 1010.6 |
| 20260505163911 | 78 | 145 | 0.9 | 4.3 | 0.00 | 0.00 | 0.00 | 90 | 1010.7 |
| 20260505163410 | 78 | 281 | 3.5 | 6.1 | 0.00 | 0.00 | 0.00 | 90 | 1010.6 |
| 20260505162908 | 78 | 118 | 0.9 | 4.3 | 0.00 | 0.00 | 0.00 | 90 | 1010.8 |
| 20260505162403 | 77 | 295 | 0.9 | 5.2 | 0.00 | 0.00 | 0.00 | 90 | 1010.7 |
| 20260505161901 | 78 | 244 | 3.5 | 6.1 | 0.00 | 0.00 | 0.00 | 90 | 1010.6 |
| 20260505161357 | 78 | 161 | 2.6 | 6.1 | 0.00 | 0.00 | 0.00 | 90 | 1010.3 |
| 20260505160855 | 77 | 176 | 3.5 | 6.1 | 0.00 | 0.00 | 0.00 | 89 | 1010.7 |
| 20260505160353 | 78 | 173 | 2.6 | 5.2 | 0.00 | 0.00 | 0.00 | 90 | 1010.6 |
| 20260505153332 | 77 | 37 | 1.7 | 7.0 | 0.00 | 0.00 | 0.00 | 89 | 1010.2 |
| 20260505152828 | 77 | 233 | 4.3 | 7.8 | 0.00 | 0.00 | 0.00 | 89 | 1010.2 |
| 20260505152325 | 77 | 83 | 0.9 | 7.8 | 0.00 | 0.00 | 0.00 | 89 | 1010.2 |
| 20260505151820 | 78 | 31 | 1.7 | 6.1 | 0.00 | 0.00 | 0.00 | 89 | 1010.3 |
| 20260505151317 | 78 | 64 | 0.9 | 6.1 | 0.00 | 0.00 | 0.00 | 89 | 1010.4 |
| 20260505150814 | 78 | 179 | 6.1 | 9.6 | 0.00 | 0.00 | 0.00 | 88 | 1010.4 |
| 20260505150311 | 78 | 192 | 3.5 | 6.1 | 0.00 | 0.00 | 0.00 | 89 | 1010.3 |
| 20260505140235 | 76 | 152 | 4.3 | 9.6 | 0.00 | 0.00 | 0.00 | 92 | 1010.1 |
| 20260505130159 | 74 | 72 | 0.0 | 2.6 | 0.00 | 0.00 | 0.00 | 95 | 1010.2 |
| 20260505124649 | 73 | 238 | 0.9 | 4.3 | 0.00 | 0.00 | 0.00 | 96 | 1010.0 |
| 20260505124145 | 73 | 80 | 0.9 | 1.7 | 0.00 | 0.00 | 0.00 | 96 | 1009.9 |
| 20260505123641 | 73 | 39 | 1.7 | 2.6 | 0.00 | 0.00 | 0.00 | 96 | 1009.9 |
| 20260505123138 | 73 | 124 | 0.9 | 4.3 | 0.00 | 0.00 | 0.00 | 96 | 1009.9 |
| 20260505122634 | 73 | 199 | 0.9 | 1.7 | 0.00 | 0.00 | 0.00 | 96 | 1009.9 |
| 20260505122132 | 73 | 76 | 1.7 | 1.7 | 0.00 | 0.00 | 0.00 | 96 | 1010.0 |
| 20260505121629 | 72 | 355 | 1.7 | 5.2 | 0.00 | 0.00 | 0.00 | 96 | 1009.8 |
| 20260505121126 | 72 | 52 | 0.0 | 0.9 | 0.00 | 0.00 | 0.00 | 96 | 1009.8 |
| 20260505120621 | 72 | 88 | 0.9 | 1.7 | 0.00 | 0.00 | 0.00 | 96 | 1009.9 |
| 20260505120117 | 72 | 59 | 0.0 | 5.2 | 0.00 | 0.00 | 0.00 | 96 | 1009.8 |
| 20260505115612 | 72 | 114 | 2.6 | 4.3 | 0.00 | 0.00 | 0.00 | 96 | 1009.6 |
| 20260505115110 | 72 | 96 | 0.0 | 2.6 | 0.00 | 0.00 | 0.00 | 95 | 1009.7 |
| 20260505114606 | 72 | 203 | 2.6 | 5.2 | 0.00 | 0.00 | 0.00 | 95 | 1009.7 |
| 20260505114103 | 72 | 181 | 0.0 | 0.9 | 0.00 | 0.00 | 0.00 | 95 | 1009.7 |
| 20260505113559 | 72 | 172 | 3.5 | 4.3 | 0.00 | 0.00 | 0.00 | 95 | 1009.6 |
| 20260505113056 | 72 | 86 | 0.9 | 4.3 | 0.00 | 0.00 | 0.00 | 95 | 1009.8 |
| 20260505112552 | 72 | 160 | 0.9 | 1.7 | 0.00 | 0.00 | 0.00 | 95 | 1009.5 |
| 20260505112050 | 72 | 244 | 1.7 | 1.7 | 0.00 | 0.00 | 0.00 | 95 | 1009.5 |
| 20260505111544 | 72 | 102 | 0.9 | 2.6 | 0.00 | 0.00 | 0.00 | 94 | 1009.6 |
| 20260505111040 | 72 | 125 | 0.9 | 5.2 | 0.00 | 0.00 | 0.00 | 94 | 1009.5 |